User: anonymous   Login
Location: Acheville
(50.3840°N, 2.8827°E)
Time: 02:26:00
(UTC+00:00)
Language:

Cosmos 1455 Rocket - Orbit

View from above orbital plane
View from above orbital plane
View from above satellite
View from above satellite

Ground track
Ground track

The orbit data is extracted from the following two-line orbital elements,

1 14033U 83037B   22018.54916113  .00000205  00000-0  21724-4 0  9992
2 14033  82.5057 213.0995 0017456 350.3925   9.6954 14.83897676707094
Epoch (UTC): 18 January 2022 13:10:47
Eccentricity: 0.0017456
inclination: 82.5057°
perigee height: 605 km
apogee height: 629 km
right ascension of ascending node: 213.0995°
argument of perigee: 350.3925°
revolutions per day: 14.83897676
mean anomaly at epoch: 9.6954°
orbit number at epoch: 70709

The dashed part of the orbit path shows where the satellite is in the earth's shadow,  

DLR